TimeEST,TemperatureF,Dew PointF,Humidity,Sea Level PressureIn,VisibilityMPH,Wind Direction,Wind SpeedMPH,Gust SpeedMPH,PrecipitationIn,Events,Conditions,WindDirDegrees,DateUTC
12:54 AM,28.0,21.9,78,30.03,10.0,WNW,3.5,-,N/A,,Clear,290,2012-02-07 05:54:00
1:54 AM,27.0,21.9,81,30.04,10.0,NNW,4.6,-,N/A,,Clear,340,2012-02-07 06:54:00
2:54 AM,27.0,21.9,81,30.05,10.0,Calm,Calm,-,N/A,,Clear,0,2012-02-07 07:54:00
3:54 AM,27.0,23.0,85,30.05,10.0,North,3.5,-,N/A,,Clear,10,2012-02-07 08:54:00
4:54 AM,28.0,23.0,81,30.07,10.0,Calm,Calm,-,N/A,,Overcast,0,2012-02-07 09:54:00
5:54 AM,32.0,26.1,79,30.08,10.0,West,6.9,-,N/A,,Overcast,280,2012-02-07 10:54:00
6:54 AM,30.9,25.0,79,30.08,10.0,Calm,Calm,-,N/A,,Mostly Cloudy,0,2012-02-07 11:54:00
7:54 AM,35.1,28.0,76,30.11,10.0,West,8.1,-,N/A,,Overcast,280,2012-02-07 12:54:00
8:54 AM,37.0,28.9,73,30.14,10.0,West,8.1,-,N/A,,Overcast,270,2012-02-07 13:54:00
9:54 AM,39.0,28.9,67,30.16,10.0,West,11.5,-,N/A,,Overcast,280,2012-02-07 14:54:00
10:54 AM,41.0,28.9,62,30.16,10.0,West,9.2,-,N/A,,Overcast,260,2012-02-07 15:54:00
11:54 AM,42.1,28.9,60,30.15,10.0,WSW,11.5,-,N/A,,Overcast,250,2012-02-07 16:54:00
12:54 PM,43.0,25.0,49,30.14,10.0,NNW,8.1,-,N/A,,Overcast,330,2012-02-07 17:54:00
1:54 PM,43.0,25.0,49,30.14,10.0,NNW,9.2,-,N/A,,Overcast,340,2012-02-07 18:54:00
2:54 PM,42.1,25.0,51,30.16,10.0,North,8.1,-,N/A,,Overcast,350,2012-02-07 19:54:00
3:54 PM,42.1,26.1,53,30.17,10.0,NNW,6.9,-,N/A,,Overcast,330,2012-02-07 20:54:00
4:54 PM,41.0,26.1,55,30.18,10.0,NW,8.1,-,N/A,,Overcast,310,2012-02-07 21:54:00
5:54 PM,39.9,25.0,55,30.20,10.0,WNW,3.5,-,N/A,,Overcast,300,2012-02-07 22:54:00
6:54 PM,39.0,25.0,57,30.22,10.0,WNW,4.6,-,N/A,,Overcast,290,2012-02-07 23:54:00
7:54 PM,39.9,26.1,58,30.23,10.0,North,6.9,-,N/A,,Overcast,360,2012-02-08 00:54:00
8:54 PM,39.0,27.0,62,30.25,10.0,NNE,5.8,-,N/A,,Overcast,20,2012-02-08 01:54:00
9:54 PM,37.0,26.1,65,30.25,10.0,North,4.6,-,N/A,,Overcast,10,2012-02-08 02:54:00
10:54 PM,33.1,25.0,72,30.26,10.0,East,4.6,-,N/A,,Clear,100,2012-02-08 03:54:00
11:54 PM,34.0,25.0,70,30.28,10.0,Calm,Calm,-,N/A,,Clear,0,2012-02-08 04:54:00